Regional Weather Roundup
Issued by NWS Albany, NY

Current Version | Previous Version | Text Only | Print | Product List | Glossary On
Versions: 1 2 3 4 5 6 7 8 9 10 11 12 13 14 15 16 17 18 19 20 21 22 23 24 25 26 27 28
000
ASUS41 KALY 252110
RWRALY

NEW YORK STATE HOURLY WEATHER ROUNDUP
NATIONAL WEATHER SERVICE ALBANY NY
500 PM EDT WED MAY 25 2016

NOTE: "FAIR" INDICATES FEW OR NO CLOUDS BELOW 12,000 FEET WITH NO
SIGNIFICANT WEATHER AND/OR NO OBSTRUCTIONS TO VISIBILITY.

NYZ032-033-038>043-046>054-057>066-NYZ062>081-082-084-252200-
EAST


CITY           SKY/WX    TMP DP  RH WIND       PRES   REMARKS
ALBANY         CLOUDY    81  53  37 W12       30.00R
GLENS FALLS    CLOUDY    79  57  46 CALM      29.97R
POUGHKEEPSIE   SUNNY     90  45  21 SW10      29.98S
NEWBURGH       SUNNY     86  48  26 W12G17    30.02
MONTGOMERY     SUNNY     88  47  24 W9        30.00S
WHITE PLAINS   SUNNY     86  43  22 SW6       30.02S
ISLIP          MOSUNNY   83  49  30 SW14      30.02S
NEW YORK CITY  PTSUNNY   90  48  23 W12G21    30.01S
CENTRAL PARK   SUNNY     86  44  23 VRB7      30.05S
$$

NYZ005>009-017-018-044>046-055-056-252200-
CENTRAL


CITY           SKY/WX    TMP DP  RH WIND       PRES   REMARKS
FULTON         PTSUNNY   79  54  41 NW8       30.04R
SYRACUSE       PTSUNNY   82  53  36 NW12      30.02S
ROME           SUNNY     80  55  42 NW13      30.03F
ELMIRA         SUNNY     86  49  27 N14       30.04F
BINGHAMTON     PTSUNNY   80  48  32 NW10      30.08F
MONTICELLO     SUNNY     82  43  24 W10G17    30.08S
$$

NYZ026>034-041>043-087-252200-
NORTH


CITY           SKY/WX    TMP DP  RH WIND       PRES   REMARKS
WATERTOWN      MOSUNNY   74  50  42 SW12      30.02S
FORT DRUM      NOT AVBL
MASSENA        MOSUNNY   82  54  37 W12       29.98R
SARANAC LAKE   MOSUNNY   76  45  33 W16G24    30.01R
PLATTSBURGH    MOSUNNY   78  53  41 E6        29.93S
$$

NYZ001>004-010>016-019>021-085-252200-
WEST


CITY           SKY/WX    TMP DP  RH WIND       PRES   REMARKS
NIAGARA FALLS  MOSUNNY   81  52  36 SW17      30.04S
BUFFALO        MOSUNNY   76  53  44 SW13      30.07S
DUNKIRK        SUNNY     79  53  40 W10       30.08F
JAMESTOWN      SUNNY     77  50  38 W7        30.12S
WELLSVILLE     MOSUNNY   82  47  29 NW8       30.13S
ROCHESTER      MOSUNNY   85  50  29 W20G30    30.04S
PENN YAN       SUNNY     86  49  27 W12       30.06S
$$

             KEY
       WCI = WIND CHILL INDEX
       VSB = VISIBILITY
       HX  = HEAT INDEX
$$




USA.gov is the U.S. government's official web portal to all federal, state and local government web resources and services.